User: anonymous   Login
Location: Salamanca
(40.9670°N, 5.6500°W)
Time: 13:03:28
(UTC+02:00)
Language:

Cosmos 1633 Rocket - Orbit

View from above orbital plane
View from above orbital plane
View from above satellite
View from above satellite

Ground track
Ground track

The orbit data is extracted from the following two-line orbital elements,

1 15593U 85020B   16145.87749800  .00000125  00000-0  12086-4 0  9997
2 15593  82.5384 265.9971 0010339 238.2684 241.9584 14.84208307686777
Epoch (UTC): 24 May 2016 21:03:35
Eccentricity: 0.0010339
inclination: 82.5384°
perigee height: 609 km
apogee height: 623 km
right ascension of ascending node: 265.9971°
argument of perigee: 238.2684°
revolutions per day: 14.84208307
mean anomaly at epoch: 241.9584°
orbit number at epoch: 68677

The dashed part of the orbit path shows where the satellite is in the earth's shadow,  

DLR